Hourly Weather Bolshie Konyushany

Today, 16 June, Wednesday

Time Temperature Precipitation Wind Pressure Humidity
00:00 +14°C° 0 mm 3 mps 749 mmHg 94%
01:00 +12°C° 0 mm 3 mps 750 mmHg 93%
02:00 +10°C° 0 mm 3 mps 750 mmHg 92%
03:00 +10°C° 0 mm 2 mps 750 mmHg 92%
04:00 +9°C° 0 mm 2 mps 750 mmHg 93%
05:00 +9°C° 0 mm 2 mps 751 mmHg 93%
06:00 +10°C° 0 mm 2 mps 751 mmHg 88%
07:00 +12°C° 0 mm 3 mps 751 mmHg 82%
08:00 +14°C° 0 mm 3 mps 751 mmHg 77%
09:00 +16°C° 0 mm 3 mps 751 mmHg 71%
10:00 +18°C° 0 mm 3 mps 751 mmHg 65%
11:00 +19°C° 0 mm 3 mps 752 mmHg 60%
12:00 +20°C° 0 mm 3 mps 752 mmHg 57%
13:00 +20°C° 0 mm 3 mps 752 mmHg 55%
14:00 +21°C° 0 mm 3 mps 752 mmHg 53%
15:00 +21°C° 0 mm 3 mps 752 mmHg 54%
16:00 +21°C° 0 mm 3 mps 752 mmHg 55%
17:00 +21°C° 0 mm 2 mps 752 mmHg 56%
18:00 +20°C° 0 mm 2 mps 752 mmHg 62%
19:00 +18°C° 0 mm 2 mps 752 mmHg 68%
20:00 +17°C° 0 mm 2 mps 752 mmHg 75%
21:00 +15°C° 0 mm 2 mps 752 mmHg 77%
22:00 +14°C° 0 mm 2 mps 753 mmHg 80%
23:00 +13°C° 0 mm 2 mps 753 mmHg 82%

Tomorrow, 17 June, Thursday

Time Temperature Precipitation Wind Pressure Humidity
00:00 +12°C° 0 mm 2 mps 753 mmHg 83%
01:00 +12°C° 0 mm 2 mps 753 mmHg 84%
02:00 +10°C° 0 mm 2 mps 754 mmHg 85%
03:00 +10°C° 0 mm 2 mps 754 mmHg 84%
04:00 +10°C° 0 mm 2 mps 754 mmHg 84%
05:00 +10°C° 0 mm 2 mps 754 mmHg 83%
06:00 +14°C° 0 mm 2 mps 754 mmHg 78%
07:00 +16°C° 0 mm 2 mps 754 mmHg 73%
08:00 +18°C° 0 mm 2 mps 755 mmHg 67%
09:00 +19°C° 0 mm 2 mps 755 mmHg 63%
10:00 +21°C° 0 mm 2 mps 755 mmHg 59%
11:00 +23°C° 0 mm 2 mps 755 mmHg 55%
12:00 +24°C° 0 mm 2 mps 755 mmHg 53%
13:00 +25°C° 0 mm 2 mps 755 mmHg 51%
14:00 +25°C° 0 mm 2 mps 755 mmHg 49%
15:00 +25°C° 0 mm 2 mps 755 mmHg 51%
16:00 +25°C° 0 mm 2 mps 754 mmHg 54%
17:00 +25°C° 0 mm 2 mps 754 mmHg 56%
18:00 +24°C° 0 mm 2 mps 754 mmHg 63%
19:00 +21°C° 0 mm 2 mps 755 mmHg 70%
20:00 +21°C° 0 mm 1 mps 755 mmHg 76%
21:00 +19°C° 0 mm 2 mps 755 mmHg 78%
22:00 +17°C° 0 mm 2 mps 755 mmHg 81%
23:00 +16°C° 0 mm 2 mps 755 mmHg 83%

Day after tomorrow, 18 June, Friday

Time Temperature Precipitation Wind Pressure Humidity
00:00 +16°C° 0 mm 2 mps 755 mmHg 83%
01:00 +15°C° 0 mm 2 mps 755 mmHg 84%
02:00 +15°C° 0 mm 2 mps 755 mmHg 84%
03:00 +15°C° 0 mm 2 mps 755 mmHg 85%
04:00 +15°C° 0 mm 2 mps 755 mmHg 87%
05:00 +15°C° 0 mm 2 mps 755 mmHg 88%
06:00 +17°C° 0 mm 3 mps 755 mmHg 83%
07:00 +19°C° 0 mm 3 mps 755 mmHg 78%
08:00 +21°C° 0 mm 4 mps 755 mmHg 74%
09:00 +24°C° 0 mm 3 mps 755 mmHg 70%
10:00 +25°C° 0 mm 3 mps 755 mmHg 66%
11:00 +26°C° 0 mm 3 mps 756 mmHg 62%
12:00 +27°C° 0 mm 3 mps 755 mmHg 60%
13:00 +27°C° 0 mm 3 mps 755 mmHg 58%
14:00 +27°C° 0 mm 3 mps 755 mmHg 56%
15:00 +27°C° 0 mm 4 mps 755 mmHg 59%
16:00 +27°C° 0 mm 4 mps 755 mmHg 61%
17:00 +26°C° 0 mm 4 mps 755 mmHg 64%
18:00 +25°C° 0 mm 3 mps 754 mmHg 69%
19:00 +22°C° 0 mm 3 mps 754 mmHg 75%
20:00 +20°C° 0 mm 3 mps 754 mmHg 80%
21:00 +19°C° 0 mm 3 mps 755 mmHg 81%
22:00 +18°C° 0 mm 3 mps 755 mmHg 82%
23:00 +17°C° 0 mm 3 mps 755 mmHg 82%

19 June, Saturday

Time Temperature Precipitation Wind Pressure Humidity
00:00 +17°C° 0 mm 3 mps 755 mmHg 84%
01:00 +16°C° 0 mm 3 mps 755 mmHg 86%
02:00 +16°C° 0 mm 3 mps 755 mmHg 88%
03:00 +16°C° 0 mm 2 mps 755 mmHg 88%
04:00 +16°C° 0 mm 2 mps 755 mmHg 89%
05:00 +16°C° 0 mm 2 mps 755 mmHg 89%
06:00 +18°C° 0 mm 3 mps 755 mmHg 85%
07:00 +19°C° 0 mm 3 mps 755 mmHg 80%
08:00 +21°C° 0 mm 3 mps 755 mmHg 75%
09:00 +23°C° 0 mm 4 mps 755 mmHg 70%
10:00 +25°C° 0 mm 4 mps 755 mmHg 66%
11:00 +26°C° 0 mm 4 mps 755 mmHg 62%
12:00 +27°C° 0 mm 4 mps 755 mmHg 60%
13:00 +27°C° 0 mm 4 mps 755 mmHg 58%
14:00 +28°C° 0 mm 4 mps 754 mmHg 56%
15:00 +28°C° 0 mm 3 mps 754 mmHg 58%
16:00 +27°C° 0 mm 3 mps 754 mmHg 61%
17:00 +27°C° 0 mm 3 mps 754 mmHg 64%
18:00 +26°C° 0 mm 3 mps 754 mmHg 70%
19:00 +24°C° 0 mm 3 mps 753 mmHg 77%
20:00 +22°C° 0 mm 3 mps 753 mmHg 83%
21:00 +21°C° 0 mm 3 mps 753 mmHg 84%
22:00 +20°C° 0 mm 3 mps 753 mmHg 85%
23:00 +19°C° 0 mm 3 mps 753 mmHg 85%

20 June, Sunday

Time Temperature Precipitation Wind Pressure Humidity
00:00 +18°C° 0 mm 3 mps 753 mmHg 86%
01:00 +18°C° 0 mm 3 mps 753 mmHg 87%
02:00 +17°C° 0 mm 3 mps 753 mmHg 89%
03:00 +17°C° 0 mm 2 mps 753 mmHg 89%
04:00 +17°C° 0 mm 2 mps 754 mmHg 90%
05:00 +17°C° 0 mm 2 mps 754 mmHg 90%
06:00 +19°C° 0 mm 2 mps 753 mmHg 85%
07:00 +20°C° 0 mm 2 mps 753 mmHg 80%
08:00 +22°C° 0 mm 3 mps 753 mmHg 75%
09:00 +24°C° 0 mm 3 mps 753 mmHg 71%
10:00 +26°C° 0 mm 4 mps 753 mmHg 67%
11:00 +27°C° 0 mm 4 mps 753 mmHg 64%
12:00 +27°C° 0 mm 4 mps 753 mmHg 63%
13:00 +27°C° 0 mm 3 mps 753 mmHg 62%
14:00 +28°C° 0 mm 3 mps 752 mmHg 61%
15:00 +28°C° 0 mm 3 mps 752 mmHg 62%
16:00 +28°C° 0 mm 3 mps 752 mmHg 63%
17:00 +28°C° 0 mm 3 mps 752 mmHg 64%
18:00 +26°C° 0.1 mm 3 mps 751 mmHg 71%
19:00 +25°C° 0.1 mm 3 mps 751 mmHg 77%
20:00 +23°C° 0.1 mm 2 mps 751 mmHg 84%
21:00 +21°C° 0 mm 2 mps 751 mmHg 86%
22:00 +21°C° 0 mm 2 mps 751 mmHg 88%
23:00 +20°C° 0 mm 3 mps 751 mmHg 90%

21 June, Monday

Time Temperature Precipitation Wind Pressure Humidity
00:00 +19°C° 0 mm 3 mps 751 mmHg 91%
01:00 +19°C° 0 mm 3 mps 752 mmHg 92%
02:00 +18°C° 0 mm 3 mps 752 mmHg 93%
03:00 +18°C° 0 mm 2 mps 752 mmHg 92%
04:00 +18°C° 0 mm 2 mps 752 mmHg 92%
05:00 +18°C° 0 mm 2 mps 752 mmHg 92%
06:00 +20°C° 0 mm 2 mps 752 mmHg 86%
07:00 +21°C° 0 mm 3 mps 752 mmHg 81%
08:00 +24°C° 0 mm 3 mps 752 mmHg 76%
09:00 +25°C° 0 mm 3 mps 752 mmHg 72%
10:00 +26°C° 0 mm 4 mps 752 mmHg 67%
11:00 +28°C° 0 mm 4 mps 751 mmHg 63%
12:00 +28°C° 0 mm 4 mps 751 mmHg 61%
13:00 +29°C° 0 mm 4 mps 751 mmHg 59%
14:00 +29°C° 0 mm 4 mps 751 mmHg 57%
15:00 +29°C° 0 mm 4 mps 751 mmHg 58%
16:00 +29°C° 0 mm 3 mps 750 mmHg 60%
17:00 +29°C° 0 mm 3 mps 750 mmHg 61%
18:00 +28°C° 0 mm 3 mps 750 mmHg 67%
19:00 +26°C° 0 mm 3 mps 750 mmHg 73%
20:00 +25°C° 0 mm 3 mps 750 mmHg 79%
21:00 +22°C° 0 mm 3 mps 750 mmHg 80%
22:00 +21°C° 0 mm 3 mps 750 mmHg 81%
23:00 +20°C° 0 mm 3 mps 750 mmHg 83%
Show more